Regional Weather Roundup
Issued by NWS Sterling, VA

Home | Current Version | Previous Version | Text Only | Print | Product List | Glossary On
Versions: 1 2 3 4 5 6 7 8 9 10 11 12 13 14 15 16 17 18 19 20 21 22 23 24 25 26 27 28 29 30 31 32 33 34 35 36 37 38 39 40 41 42 43 44 45 46 47 48 49 50
000
ASUS41 KLWX 142311
RWRLWX

REGIONAL WEATHER ROUNDUP
NATIONAL WEATHER SERVICE BALTIMORE MD/WASHINGTON DC
600 PM EST THU DEC 14 2017

Note: "FAIR" indicates few or no clouds below 12,000 feet
with no significant weather and/or obstructions to visibility.
 TC=TEMPERATURE CELSIUS

 * =Non NWS site. Station does not report precipitation (e.g. rain,
    snow, etc.), thunder, or fog.

DCZ001-MDZ009-015-VAZ040>042-051-053>054-150000-
WASHINGTON METRO

CITY           SKY/WX    TMP DP  RH WIND       PRES   REMARKS
WASHINGTON NAT CLOUDY    36  16  44 N14       30.03R WCI  27
DULLES         CLOUDY    33  18  53 NW12      30.01R WCI  24
ANDREWS AFB    CLOUDY    34  15  45 N9        30.00R WCI  27
FT BELVOIR     CLOUDY    36  16  44 CALM      30.03R
QUANTICO       MOCLDY    38  19  46 N7        30.04R
COLLEGE PARK*  PTCLDY    34  14  44 NW7       30.02R
LEESBURG*      PTCLDY    34  21  60 NW13      30.01R WCI  25
MANASSAS*      CLOUDY    34  18  52 N12       30.02R WCI  25
GAITHERSBURG*  MOCLDY    30  16  56 NW9       30.01R WCI  22

$$

MDZ006>007-011-014-150000-
BALTIMORE METRO

CITY           SKY/WX    TMP DP  RH WIND       PRES   REMARKS
BWI AIRPORT    MOCLDY    32  15  49 NW7       30.02R
MD SCIENCE CTR   N/A     35  13  40 MISG      30.02R
MARTIN STATE   PTCLDY    32  18  55 NW6       30.04R
ANNAPOLIS      MOCLDY    37  22  54 NW8       30.02R
FORT MEADE*    MOCLDY    32  18  55 NW6       30.04R

$$

MDZ012-015-019>023-150000-
MARYLAND EASTERN SHORE

CITY           SKY/WX    TMP DP  RH WIND       PRES   REMARKS
OCEAN CITY     CLEAR     33  20  58 N9        30.01R WCI  25
SALISBURY      CLEAR     34  18  52 N8        30.01R WCI  27
BAY BRIDGE AP* MOCLDY    36  18  48 NW8       30.02R
CAMBRIDGE*     CLEAR     36  18  48 N8G15     30.00R
EASTON*        PTCLDY    36  16  44 N7        30.04R

$$

MDZ017>025-150000-
SOUTHERN MARYLAND

CITY           SKY/WX    TMP DP  RH WIND       PRES   REMARKS
PATUXENT RIVER PTCLDY    36  18  48 N8        30.01R
ST INIGOES     CLEAR     36  18  48 NE3       30.00R
LEONARDTOWN*   CLEAR     34  19  55 CALM      30.02R

$$

MDZ003>005-150000-
NORTH CENTRAL MARYLAND

CITY           SKY/WX    TMP DP  RH WIND       PRES   REMARKS
FREDERICK*     CLEAR     34  12  40 NW8       30.05R WCI  27
HAGERSTOWN APT PTCLDY    28  15  58 NW8       30.00R WCI  20
WESTMINSTER*   CLEAR     28  16  59 NW6       29.98R

$$

MDZ501>502-150000-
WESTERN MARYLAND

CITY           SKY/WX    TMP DP  RH WIND       PRES   REMARKS
OAKLAND*       CLOUDY    16  14  93 CALM      29.84S
CUMBERLAND*    CLEAR     30  16  55 CALM      30.05S

$$

VAZ025>031-150000-
SHENANDOAH VALLEY

CITY           SKY/WX    TMP DP  RH WIND       PRES   REMARKS
WINCHESTER*    CLOUDY    30  16  55 NW14      30.00R WCI  20
FRONT ROYAL*   FAIR      32  19  59 N5        29.99R
LURAY*         PTCLDY    34  21  60 CALM      29.98R
NEW MARKET*    PTCLDY    33  17  52 CALM      29.97R
STAUNTON*      CLOUDY    31  19  61 NE3       29.98R
WAYNESBORO*    CLOUDY    33  19  57 CALM      29.95R

$$

WVZ021-048>050-054>055-150000-
EASTERN WEST VIRGINIA PANHANDLE

CITY           SKY/WX    TMP DP  RH WIND       PRES   REMARKS
MARTINSBURG    CLOUDY    30  15  53 N7        30.01R
PETERSBURG*    CLOUDY    32  20  63 W5        30.00R

$$

VAZ036>039-050-150000-
CENTRAL FOOTHILLS

CITY           SKY/WX    TMP DP  RH WIND       PRES   REMARKS
CHARLOTTESVILL PTCLDY    38  19  46 N6        29.97R
CULPEPER*      FAIR      37  17  46 N10       30.01R
ORANGE*        PTCLDY    32  19  59 CALM      29.98R
GORDONSVILLE*  PTCLDY    34  21  58 CALM      29.98R
WARRENTON*     CLOUDY    36  15  42 N9        30.00R WCI  29

$$

VAZ055>057-150000-
NORTH AND CENTRAL PIEDMONT

CITY           SKY/WX    TMP DP  RH WIND       PRES   REMARKS
FREDERICKSBRG* PTCLDY    38  20  49 NE7       30.01R
STAFFORD*      PTCLDY    37  19  47 NE5       30.06R

$$

NCZ024-NYZ072-PAZ021-071-VAZ022-071-150000-
OTHER REGIONAL OBSERVATIONS

CITY           SKY/WX    TMP DP  RH WIND       PRES   REMARKS
NEW YORK CITY  CLEAR     27   8  44 NW8       29.98R WCI  19
PHILADELPHIA   PTCLDY    31  10  41 NW8       30.02R WCI  23
PITTSBURGH     CLOUDY    22  11  62 NW3       30.00R
ROANOKE        CLOUDY    37  21  52 NW10      29.97R
RICHMOND       MOCLDY    40  22  48 NE6       29.99R
RALEIGH        PTCLDY    47  26  44 CALM      29.94R

$$

ANZ530>537-150000-
MARINE OBSERVATIONS

STATION/POSITION TIME  TEMP    WIND        PRES
                       AIR SEA DIR/SP/G
                 (UTC) (F)     (DEG/KT/KT) (MB)
THOMAS PT LIGHT  2300   36 45  340/ 12/ 14   N/A

$$




USA.gov is the U.S. government's official web portal to all federal, state and local government web resources and services.